User: anonymous   Login
Location: Milton Keynes
(52.0316°N, 0.7531°W)
Time: 01:05:31
(UTC+00:00)
Language:

Tiangong 2 - Orbit

View from above orbital plane
View from above orbital plane
View from above satellite
View from above satellite

Ground track
Ground track

The orbit data is extracted from the following two-line orbital elements,

1 41765U 16057A   19052.71917795  .00003497  00000-0  45373-4 0  9994
2 41765  42.7844 295.4255 0007356 196.3923 264.2470 15.60737577138993
Epoch (UTC): 21 February 2019 17:15:36
Eccentricity: 0.0007356
inclination: 42.7844°
perigee height: 380 km
apogee height: 390 km
right ascension of ascending node: 295.4255°
argument of perigee: 196.3923°
revolutions per day: 15.60737577
mean anomaly at epoch: 264.2470°
orbit number at epoch: 13899

The dashed part of the orbit path shows where the satellite is in the earth's shadow,  

DLR